DMSP 5D-3 F18 (USA 210)

Satellite information

Favourite Embed

Satellite Type and Status

PAYLOADIN ORBIT

Key statistics

Satellite DMSP 5D-3 F18 (USA 210) at a glance.

Uptime

5900

Days in orbit

Revolutions

≈ 14.1

Per day

Orbit

SSO

Sun Synchronous Orbit

Inclination

98.9

Latest

Satellite identification and parameters

Extended collection of information and parameters for DMSP 5D-3 F18 (USA 210).

Object identification

Identified? True

Debris? False

Object name: DMSP 5D-3 F18 (USA 210)

International designator: 2009-057A

Object number (NORAD): 35951

Object ID (CCSDS): 35951

Country: UNITED STATES OF AMERICA (US)

Current information (Y/N): Y

RCS size: LARGE

Orbital parameters

Period: 101.783 minutes

Inclination: 98.8835 deg

SMA: 7221.236 km

Apoapsis: 851.811 km

Periapsis: 834.392 km

RAAN: 322.6342 deg

Eccentricy: 0.00120612

Argument of periapsis: 64.0826 deg

Mean anomaly: 296.1589 deg

Mean motion: 14.14768679 rev/day

Mean motion (dot): 0.00000394 rev/day2

B* drag term: 0.00022742193 1/REarth

Two-line elements (TLE)

Creation date: Dec. 12, 2025, 10:14 a.m.

Reference frame: TEME

Reference center: EARTH

Epoch: Dec. 12, 2025, 5:32 a.m. UTC

TLE line 0: 0 DMSP 5D-3 F18 (USA 210)

TLE line 1: 1 35951U 09057A 25346.23093599 .00000394 00000-0 22742-3 0 9990

TLE line 2: 2 35951 98.8835 322.6342 0012061 64.0826 296.1589 14.14768679833157

Live tracking on map

Real-time ground track for satellite DMSP 5D-3 F18 (USA 210).

In-orbit conjunctions

There are no conjunctions computed for DMSP 5D-3 F18 (USA 210), at the moment. Check back to stay up to date, as we update our databases every day.

Go to all conjunctions

Associated space launch

The Defence Metoerological Satellite Program (DMSP) monitors meteorological, oceanographic and solar-terrestrial physics for the Department of Defence, managed by Air Force Space Command and operated by NOAA.

DMSP 5D-3 F18 (USA 210) was lifted into orbit during the mission ‘Atlas V 401 | DMSP-5D3 F18 (USA-210)’, on board a Atlas V 401 space rocket.

The launch took place on Oct. 18, 2009, 4:12 p.m. from Space Launch Complex 3E.

For more information about the launch, click the button.

Launch to space Atlas V 401 | DMSP-5D3 F18 (USA-210)
Atlas V 401 | DMSP-5D3 F18 (USA-210)

Agency: N/A

Status: Launch Successful

Launch date: Oct. 18, 2009, 4:12 p.m. UTC

Rocket: Atlas V 401

Launch pad: Space Launch Complex 3E

Location: Vandenberg SFB, CA, USA

...

Latest news about this satellite

There are no fresh news available about this satellite. Check back as we update our databases every day.


Newsletter sign-up

Weekly statistics, charts and insights to help you stay on top of the space industry.